Temperature
21 20 20 21 26 28 28 27 28 27 27 26 25 25 25 25 24 23 20 19 19 18 18 18 19 19 19 19 19 19 18 18 18 18 18 18 18 18 18 18 18 18 18 18 18 18 18 18 18
21 21 21 25 29 28 27 28 27 27 26 25 25 25 25 24 22 20 19 19 19 18 18 18 19 19 19 19 19 18 18 18 18 18 18 18 18 18 18 19 18 18 18 18 18 18 18 18 18
21 21 24 29 29 28 27 28 27 27 26 26 25 25 24 23 21 20 19 19 19 18 18 18 19 19 19 19 19 18 18 18 18 18 18 18 18 18 18 18 18 18 18 18 18 18 18 18 18
21 23 27 29 28 28 28 28 28 27 26 26 26 25 23 21 20 20 19 19 19 18 18 18 19 19 19 19 18 18 18 18 18 18 18 18 18 18 18 18 18 18 18 18 18 18 18 18 18
23 27 29 29 29 29 29 28 28 28 27 26 26 25 22 20 20 19 19 19 19 19 18 18 19 19 19 19 19 18 18 18 18 18 18 18 18 18 18 18 18 18 18 18 18 18 18 18 18
27 29 30 29 29 29 29 28 28 28 27 26 26 25 22 20 20 19 19 19 19 19 18 18 19 19 19 19 19 19 19 18 18 18 18 18 18 18 18 18 18 18 18 18 18 18 18 18 18
28 30 30 29 29 29 29 28 28 28 27 26 26 25 22 20 20 19 19 19 19 19 19 18 18 19 19 19 19 19 19 19 18 18 18 18 18 18 18 18 18 18 18 18 18 18 18 18 18
27 30 30 30 29 29 29 28 27 28 27 25 25 26 24 21 20 19 19 19 19 19 19 18 18 18 18 18 19 19 19 18 18 18 18 18 18 18 18 18 18 18 18 18 18 18 18 18 18
27 30 30 30 30 30 29 29 27 27 26 25 25 25 23 21 20 20 20 19 19 19 19 19 19 18 19 18 18 18 18 18 18 18 18 18 18 18 18 18 18 18 18 18 18 18 18 18 18
29 30 30 30 31 30 29 29 28 28 27 26 24 23 21 21 20 21 20 20 20 19 19 19 19 19 19 18 18 18 18 18 18 18 18 18 18 18 18 18 18 18 18 18 18 18 18 18 18
30 30 30 30 30 29 29 29 28 29 28 27 25 23 21 21 21 21 21 21 20 20 19 19 19 19 19 18 18 18 18 18 18 18 18 18 18 18 18 18 18 18 18 18 18 18 18 18 18
30 31 30 30 29 29 29 29 29 28 28 26 25 23 22 22 22 22 21 21 20 20 19 19 19 19 19 18 18 18 18 18 18 18 18 18 18 18 18 18 18 18 18 18 18 18 18 18 18
31 31 30 30 29 29 29 29 29 28 26 25 24 23 23 22 22 22 21 20 20 20 19 19 19 19 18 18 18 18 18 18 18 18 18 18 18 18 18 18 18 18 18 18 18 18 18 18 18
31 30 30 30 30 29 29 29 29 27 26 25 24 23 23 22 22 21 21 20 20 20 20 19 19 19 19 18 18 18 18 18 18 18 18 18 18 18 18 18 18 18 18 18 18 18 18 18 18
30 31 31 31 30 30 30 30 29 27 26 25 25 24 23 23 22 21 21 21 20 20 20 19 19 19 19 18 18 18 19 19 18 18 18 18 18 18 18 18 18 18 18 18 18 18 18 18 18
32 32 31 31 31 30 30 30 30 27 26 26 25 24 23 23 22 22 21 21 20 20 20 19 19 19 19 19 19 19 19 18 18 18 18 18 18 18 18 18 18 18 18 18 18 18 18 18 18
32 32 31 31 31 31 31 31 30 28 27 27 26 25 24 23 22 22 21 21 20 20 20 19 19 19 19 19 19 19 19 18 18 18 18 18 18 18 18 18 18 18 18 18 18 18 18 18 18
31 32 31 31 31 31 31 31 30 28 28 27 26 25 24 24 23 22 22 21 21 20 20 20 19 19 19 19 19 19 19 18 18 18 18 18 18 18 18 18 18 18 18 18 18 18 18 18 18
32 31 31 31 32 31 31 31 30 29 28 27 26 26 25 24 24 23 22 21 21 20 20 20 20 19 19 19 19 19 19 19 19 19 18 18 18 18 18 18 18 18 18 18 18 18 18 18 18
31 31 31 32 31 31 31 31 31 30 28 28 27 26 25 25 24 23 22 22 21 21 20 20 20 20 20 19 19 19 19 19 19 19 18 18 18 18 18 18 18 18 18 18 18 18 18 18 18
31 31 31 31 31 31 31 30 30 30 28 28 27 27 26 25 25 23 22 22 22 21 21 21 20 20 20 20 19 19 19 19 19 19 18 18 18 18 18 18 18 18 18 18 18 18 18 18 18
31 32 31 31 31 31 31 30 30 30 29 29 28 27 26 26 25 24 23 22 22 22 21 21 21 20 20 20 19 19 19 19 19 19 19 18 18 18 18 18 18 18 18 18 18 18 18 18 18
32 32 31 31 31 31 31 31 31 30 30 29 29 27 27 26 25 24 23 23 22 22 21 21 21 21 20 20 20 19 19 19 19 19 19 19 18 18 18 18 18 18 18 18 18 18 18 18 18
31 31 31 31 31 30 31 30 30 31 30 30 29 28 27 26 25 24 23 22 22 22 21 21 21 21 20 20 20 20 19 19 19 19 19 19 18 18 18 18 18 18 18 18 18 18 18 17 17
31 31 30 30 30 30 31 30 30 30 30 29 29 28 26 26 25 24 23 22 22 21 21 21 21 21 20 20 20 19 19 19 19 19 18 18 18 18 18 18 18 18 18 18 18 18 17 17 17
31 31 30 29 30 31 30 30 31 30 29 28 28 27 26 25 25 24 23 22 21 21 21 21 21 20 20 20 20 19 19 19 19 19 18 18 18 18 18 18 18 18 18 17 17 17 17 17 17
31 31 32 31 31 30 31 31 30 30 29 29 28 27 26 25 24 24 23 22 21 21 21 21 20 20 20 20 20 19 19 19 19 18 18 18 18 18 18 18 18 18 18 17 17 17 17 17 17
31 31 31 31 29 29 30 30 31 30 29 29 28 27 26 24 24 23 23 22 21 21 21 21 20 20 20 20 19 19 19 19 19 18 18 19 18 18 18 18 18 18 18 17 17 17 17 17 17
30 30 30 31 30 29 29 30 31 30 30 29 28 27 25 24 24 23 22 22 22 21 21 20 20 19 19 19 19 19 19 19 19 19 18 18 18 18 18 18 18 17 17 17 17 17 17 16 16
30 30 30 30 29 29 30 30 30 30 30 29 28 26 25 24 23 23 22 21 21 21 21 20 20 19 19 19 19 18 18 18 18 18 18 18 18 18 18 18 18 17 17 17 17 17 16 16 16
Wind_Speed
12 10 6 4 3 4 11 9 7 7 6 7 7 6 6 7 6 5 5 7 8 9 10 12 11 11 11 12 13 14 14 14 14 13 13 13 13 12 12 11 11 10 10 10 10 10 9 9 9
8 6 5 3 2 8 10 8 8 8 6 5 6 6 7 8 7 6 6 7 9 10 11 12 11 11 11 12 12 13 13 13 13 13 13 12 11 11 11 10 10 10 9 10 9 9 8 8 8
7 6 4 0 7 9 9 8 8 7 6 4 5 6 6 6 6 5 7 10 10 10 11 13 11 11 10 11 13 13 13 12 12 12 12 11 10 9 9 9 9 9 9 9 9 8 7 7 7
4 4 2 3 11 10 8 7 6 6 6 5 5 7 6 6 4 7 11 11 11 11 11 13 11 11 11 12 13 13 12 12 11 11 10 10 9 9 8 8 8 8 8 8 7 7 7 7 6
5 2 3 8 11 9 8 6 4 5 5 6 6 8 8 7 8 11 11 11 11 11 11 13 11 11 12 12 12 12 11 11 10 10 9 9 8 8 7 7 7 7 6 6 6 6 6 6 5
3 1 4 9 10 8 7 5 5 6 7 7 7 9 7 7 9 11 11 11 10 10 11 12 12 11 11 11 11 11 10 9 9 8 8 7 7 7 6 6 6 6 5 5 5 5 5 4 4
3 3 6 8 8 8 6 4 4 5 6 6 5 8 8 9 9 10 11 10 9 9 9 10 11 11 11 10 9 9 9 8 8 7 7 6 6 6 5 5 5 5 5 5 4 5 4 4 4
3 1 6 7 7 8 6 4 4 4 6 6 3 5 9 11 11 11 10 10 9 8 8 8 9 9 9 10 9 8 7 7 7 6 6 6 6 6 6 6 5 4 4 4 4 4 4 4 4
3 1 7 7 6 6 4 4 5 4 6 5 5 7 12 16 13 12 10 10 9 8 7 7 8 8 7 8 9 8 7 7 6 6 7 6 5 5 6 4 5 4 3 3 4 4 4 5 6
2 3 7 5 5 4 3 3 4 5 6 7 8 10 14 15 13 12 11 10 10 9 8 7 6 7 6 6 6 5 5 6 4 3 4 4 3 3 3 6 5 5 5 6 6 6 8 9 6
1 3 4 3 3 2 3 3 3 3 4 5 9 14 15 14 12 10 9 9 9 9 7 7 6 5 5 4 4 3 3 4 4 3 2 2 2 3 3 3 5 5 6 5 6 8 6 4 2
1 2 2 2 2 2 2 3 3 3 6 6 10 15 15 13 11 10 9 8 8 8 8 6 6 5 4 3 3 3 3 2 2 4 3 2 1 1 1 1 2 3 2 2 3 3 3 2 3
1 1 2 1 1 2 3 3 3 5 6 9 12 14 14 12 10 9 8 7 7 7 7 6 5 4 4 3 3 3 2 2 3 2 2 2 1 1 1 1 1 1 1 2 2 2 2 2 4
1 1 1 2 3 4 4 4 3 6 9 11 12 12 12 11 10 9 9 8 7 7 7 7 6 6 5 4 3 3 3 3 2 2 2 2 2 1 1 1 1 1 2 1 1 2 2 3 2
2 2 3 3 2 3 4 4 3 8 10 11 11 11 11 10 9 9 9 8 8 7 7 7 7 6 5 5 4 4 3 3 2 2 3 3 2 1 2 1 2 1 1 1 2 2 2 3 3
5 5 2 4 2 3 5 2 6 9 10 10 10 11 10 10 9 9 9 8 8 8 7 7 6 6 6 4 4 3 3 2 2 2 2 2 2 2 2 2 1 1 2 2 1 2 1 2 2
5 2 0 3 3 3 5 1 6 9 10 9 10 10 10 10 10 9 9 9 9 8 8 8 6 6 5 5 4 3 3 3 3 2 2 2 3 3 3 1 0 1 1 2 2 0 1 1 2
2 2 1 1 2 4 4 1 5 8 9 9 10 10 10 10 10 10 9 9 9 9 9 8 7 6 5 5 4 4 3 3 3 3 2 3 3 3 2 2 1 1 1 1 1 1 1 2 2
5 5 4 1 0 4 4 3 3 7 9 9 10 10 10 10 9 9 9 9 10 10 10 9 8 8 6 5 5 4 4 4 3 3 3 3 3 2 2 1 2 2 1 1 2 2 2 2 1
7 7 4 2 1 3 3 3 3 6 8 9 10 11 11 10 10 9 10 10 10 10 10 10 9 8 8 6 5 4 3 3 3 2 3 3 3 3 3 2 2 2 2 2 2 2 2 2 1
9 7 5 4 2 5 4 4 4 5 7 7 8 9 10 10 10 10 10 10 10 10 11 10 9 9 9 7 5 4 3 4 3 3 3 3 4 3 2 2 3 2 2 2 2 3 3 2 2
9 5 6 6 7 4 5 4 3 5 6 8 9 9 10 10 10 10 10 11 11 11 10 10 9 9 8 8 7 7 6 5 4 3 3 3 4 4 3 3 3 3 2 2 3 3 3 3 3
6 3 6 6 7 6 6 6 2 4 5 6 8 9 9 9 9 9 9 10 10 10 9 9 9 9 8 8 8 7 6 5 4 4 4 4 4 4 3 3 3 3 3 2 3 2 3 3 4
5 5 6 8 9 7 6 7 3 2 3 4 5 7 8 8 8 8 8 8 8 9 8 8 8 8 8 8 8 8 7 6 5 5 4 5 4 4 4 4 3 3 3 3 3 3 4 3 4
10 10 7 8 8 6 3 5 3 1 1 2 3 5 7 7 8 8 7 7 8 8 8 8 8 8 8 8 8 9 8 8 8 7 5 5 4 5 5 5 4 4 3 4 3 4 4 3 4
11 12 9 8 7 5 5 5 2 1 1 2 3 4 5 6 7 7 7 7 7 8 8 8 8 7 7 8 8 8 8 8 7 7 6 6 5 4 4 5 5 4 4 4 4 4 4 4 4
10 11 10 10 11 9 6 4 4 3 3 4 4 5 5 5 5 6 7 7 7 7 7 7 7 7 7 7 7 8 8 8 7 6 7 6 5 4 5 5 5 5 5 4 4 4 4 4 5
9 9 9 10 9 10 9 9 5 4 4 5 4 4 4 5 6 6 6 6 6 6 6 6 6 6 6 6 6 6 7 7 7 6 6 6 5 5 5 6 6 6 6 5 5 5 4 5 5
9 10 10 10 10 11 10 5 0 3 4 4 4 4 5 6 6 6 5 5 5 5 5 5 5 5 5 5 6 5 6 6 7 6 6 6 6 6 6 6 6 6 6 5 6 6 5 6 6
10 10 11 11 10 10 12 7 1 1 2 3 4 5 5 6 6 6 5 5 4 4 4 4 4 5 5 5 5 6 5 6 7 7 7 7 6 6 6 6 5 6 5 5 6 6 6 6 6
Wind_Direction
177 182 205 234 223 88 68 62 59 60 64 63 61 59 58 45 34 70 97 112 116 121 121 124 118 120 121 121 123 125 124 126 126 124 124 127 127 126 125 125 125 124 122 119 116 116 116 117 117
173 187 225 245 45 78 70 63 60 60 77 94 79 70 70 66 57 90 112 116 124 121 122 118 117 119 122 126 127 126 128 128 127 126 125 124 126 126 126 125 126 126 125 121 119 116 116 118 118
183 223 258 325 58 60 68 67 74 84 89 86 84 65 56 65 79 98 112 128 128 121 120 115 117 116 119 128 130 128 128 129 128 128 127 127 128 128 127 128 129 128 127 125 123 121 121 122 120
218 227 232 74 71 62 68 76 87 98 95 78 90 85 77 57 80 106 124 133 127 123 121 116 116 113 113 122 126 128 129 129 129 128 128 130 134 133 131 130 132 132 128 127 128 127 127 128 125
242 262 104 82 73 70 72 76 87 81 81 83 88 94 88 76 94 116 127 131 127 124 121 119 118 116 116 119 122 124 127 127 128 128 129 133 135 137 138 136 136 136 135 136 139 140 140 140 138
261 272 75 75 76 79 78 83 91 90 93 98 100 101 93 106 117 123 127 130 127 124 122 121 124 121 118 120 122 124 125 129 130 130 135 138 141 145 147 147 147 146 146 146 148 151 152 154 157
319 30 66 74 81 82 70 73 77 91 97 92 105 104 117 126 125 128 127 127 127 126 125 127 131 131 129 124 125 128 130 132 137 142 145 146 149 152 152 154 154 154 159 162 163 166 166 170 175
306 353 80 75 76 78 79 83 79 80 93 103 108 110 133 139 138 134 131 129 129 129 127 128 131 129 135 134 132 130 133 137 144 154 154 156 166 168 166 174 160 161 166 169 173 173 177 179 182
274 64 72 65 64 79 93 96 98 98 113 106 87 90 123 137 142 141 139 137 137 137 136 137 134 134 135 131 133 142 149 153 164 165 167 185 185 172 176 147 150 167 169 180 185 184 186 199 190
282 58 61 48 47 79 99 95 111 133 128 122 117 114 130 144 151 152 149 148 148 147 145 144 144 141 139 136 139 154 154 149 165 153 166 182 178 183 170 137 168 178 189 194 194 200 209 226 198
37 46 49 53 44 79 108 109 122 124 113 123 141 145 150 154 159 156 152 151 149 149 150 152 150 147 149 147 152 150 146 150 160 156 184 183 198 181 178 167 169 183 198 197 185 205 215 216 214
94 46 31 55 63 96 103 115 114 93 75 110 138 148 155 161 162 160 155 150 151 155 160 160 160 161 165 161 157 171 170 165 157 152 201 184 194 210 147 173 170 192 186 191 205 204 211 224 225
167 51 44 68 138 132 143 133 116 111 106 122 136 149 158 162 161 159 152 152 159 163 167 170 170 168 176 180 200 185 183 193 169 166 166 207 206 204 160 170 222 230 187 190 208 212 210 221 221
64 28 107 120 131 141 148 139 147 132 140 140 147 156 161 164 164 161 164 167 171 174 176 174 181 180 186 193 199 198 191 194 197 188 173 221 240 245 231 206 208 231 235 222 217 221 221 224 227
205 197 155 137 146 152 177 155 152 145 154 155 158 161 164 169 171 173 174 176 176 177 179 179 186 184 194 205 208 202 205 196 202 194 193 223 237 236 264 233 218 236 250 228 221 226 228 222 220
216 220 178 137 179 182 233 92 132 158 166 166 165 166 171 177 182 182 183 184 180 180 181 185 189 183 188 203 216 211 211 203 211 214 199 199 207 215 241 239 222 232 233 222 225 235 242 242 242
215 232 124 136 186 212 242 17 135 171 177 173 173 172 176 180 188 188 191 188 186 186 188 189 192 190 192 194 209 221 214 219 217 216 207 183 201 210 228 227 52 224 218 233 253 183 264 257 262
277 288 271 290 182 230 245 277 145 177 185 182 180 179 181 185 189 188 191 187 186 188 192 193 193 193 196 196 203 220 222 221 217 212 201 212 210 210 236 192 174 223 206 233 278 259 257 265 261
286 282 284 319 312 248 249 262 179 178 192 190 188 187 189 191 185 183 187 187 187 190 194 200 203 194 196 201 207 210 212 218 212 206 196 199 202 197 221 235 170 222 206 233 236 245 232 245 252
257 262 265 240 169 257 265 260 199 184 198 197 195 194 195 192 186 186 190 192 193 193 196 199 204 202 203 202 211 219 225 227 220 211 181 200 199 211 205 212 218 199 199 215 227 237 265 260 242
248 261 277 286 235 217 257 226 191 176 192 196 199 199 200 198 194 191 195 200 199 198 200 203 204 204 207 206 208 206 206 225 212 205 196 199 203 211 227 216 232 226 227 211 223 233 241 257 245
248 254 264 259 255 244 253 264 192 187 188 196 197 198 202 200 199 198 197 201 203 202 200 202 204 207 205 206 211 212 217 219 218 217 205 202 205 210 213 216 226 240 243 235 241 230 246 254 254
262 255 248 251 256 262 244 264 201 182 206 204 198 198 199 196 196 197 198 199 200 198 197 196 198 202 203 208 211 216 221 219 216 212 203 215 208 215 219 214 218 228 242 245 263 255 254 249 261
219 219 223 236 246 249 251 263 255 210 232 214 191 194 194 192 191 190 192 192 194 191 192 190 190 197 200 205 211 214 216 219 220 215 208 213 210 209 208 212 218 229 244 242 248 248 239 257 269
220 230 234 230 229 241 213 250 269 316 235 215 197 182 182 186 187 184 185 186 189 189 189 188 185 193 197 204 211 213 216 217 218 220 216 225 220 210 203 211 217 230 231 236 241 240 256 253 257
223 239 250 260 260 246 198 243 238 161 177 193 184 164 166 173 177 179 179 180 183 185 187 189 189 197 198 203 210 214 216 219 220 221 229 224 229 219 205 211 218 227 232 235 230 242 241 242 248
230 235 255 264 265 267 246 231 219 196 199 184 166 157 158 161 160 168 172 173 175 181 187 189 192 198 200 202 206 212 215 224 224 220 227 226 223 213 211 220 224 227 228 236 239 240 245 246 249
247 245 242 249 255 259 247 241 238 205 206 188 176 164 152 155 157 156 157 161 166 174 178 185 190 194 195 197 205 204 209 214 218 222 220 226 221 219 215 218 223 223 222 226 237 238 236 241 248
213 225 237 249 257 263 265 257 198 224 214 199 181 160 150 154 153 150 147 151 153 158 166 177 187 192 196 202 206 208 207 208 211 216 219 219 222 220 222 223 224 225 224 223 229 240 237 243 250
235 234 235 244 247 253 269 268 120 191 201 185 168 153 153 154 149 145 139 137 142 149 158 167 181 191 196 199 203 206 208 211 213 214 217 219 222 225 223 224 225 228 227 228 232 240 241 241 244
Height
1507 1507 1508 1509 1504 1499 1504 1503 1500 1502 1504 1508 1509 1508 1509 1511 1513 1522 1523 1521 1522 1522 1523 1523 1524 1525 1527 1528 1530 1531 1533 1535 1536 1537 1539 1540 1542 1543 1544 1545 1546 1547 1548 1549 1550 1551 1552 1553 1553
1508 1508 1510 1507 1498 1505 1509 1503 1504 1505 1508 1510 1511 1511 1512 1515 1519 1521 1522 1523 1523 1524 1525 1525 1526 1527 1528 1529 1531 1533 1535 1537 1538 1540 1541 1542 1543 1545 1546 1547 1548 1549 1550 1551 1552 1552 1553 1554 1555
1509 1509 1510 1500 1500 1505 1509 1504 1506 1508 1511 1511 1512 1514 1515 1519 1522 1523 1524 1525 1526 1527 1528 1528 1528 1529 1528 1528 1532 1535 1537 1539 1540 1542 1543 1544 1545 1546 1547 1548 1549 1550 1551 1552 1553 1553 1554 1555 1556
1511 1511 1507 1500 1505 1504 1504 1505 1507 1508 1511 1512 1513 1516 1520 1524 1524 1525 1525 1527 1529 1530 1531 1530 1531 1531 1529 1529 1534 1537 1539 1541 1542 1543 1545 1546 1547 1548 1549 1550 1550 1551 1552 1553 1554 1554 1555 1556 1556
1511 1507 1501 1502 1504 1504 1505 1507 1508 1508 1510 1513 1514 1517 1522 1526 1525 1526 1528 1530 1531 1532 1533 1533 1533 1534 1534 1535 1537 1539 1541 1542 1544 1545 1546 1547 1548 1549 1550 1551 1551 1552 1553 1554 1554 1555 1556 1557 1557
1510 1502 1502 1506 1506 1505 1506 1509 1509 1510 1512 1515 1516 1518 1525 1527 1528 1529 1530 1532 1533 1534 1535 1535 1536 1537 1538 1539 1540 1542 1543 1544 1546 1546 1547 1549 1549 1550 1551 1552 1553 1553 1554 1554 1555 1556 1556 1557 1557
1509 1501 1503 1504 1506 1505 1508 1509 1509 1510 1513 1515 1517 1519 1525 1528 1529 1530 1532 1534 1535 1537 1538 1538 1539 1539 1540 1541 1543 1544 1545 1546 1547 1548 1549 1550 1551 1551 1552 1553 1553 1554 1554 1555 1555 1556 1556 1557 1557
1509 1502 1501 1502 1505 1506 1508 1510 1511 1512 1514 1518 1519 1519 1524 1529 1530 1532 1533 1535 1537 1538 1539 1540 1542 1542 1544 1544 1545 1546 1547 1548 1549 1549 1550 1551 1552 1552 1553 1553 1554 1554 1554 1555 1555 1556 1556 1557 1557
1509 1503 1505 1504 1505 1506 1509 1510 1513 1514 1516 1518 1520 1521 1525 1528 1530 1533 1535 1536 1538 1539 1541 1542 1544 1544 1545 1547 1547 1547 1548 1549 1550 1551 1551 1552 1553 1554 1554 1554 1554 1555 1555 1555 1555 1556 1556 1557 1557
1507 1504 1504 1503 1503 1505 1509 1510 1512 1513 1515 1518 1522 1524 1526 1528 1531 1533 1535 1537 1539 1540 1542 1543 1545 1546 1547 1548 1548 1549 1550 1551 1551 1552 1552 1553 1554 1555 1555 1554 1554 1555 1555 1555 1555 1556 1556 1557 1559
1505 1504 1504 1505 1506 1507 1508 1510 1512 1511 1512 1516 1520 1524 1527 1530 1532 1534 1536 1538 1540 1541 1543 1544 1545 1546 1547 1548 1549 1550 1551 1551 1552 1552 1553 1553 1554 1555 1555 1556 1555 1555 1555 1556 1555 1556 1558 1559 1559
1506 1505 1506 1506 1507 1508 1508 1510 1511 1512 1515 1518 1520 1523 1527 1530 1532 1534 1536 1538 1540 1542 1543 1544 1545 1546 1547 1548 1549 1550 1551 1552 1552 1552 1553 1553 1554 1554 1555 1555 1555 1555 1555 1555 1556 1556 1557 1557 1558
1505 1505 1506 1507 1507 1508 1509 1510 1512 1514 1517 1519 1521 1524 1527 1530 1532 1535 1537 1538 1540 1542 1543 1544 1545 1545 1546 1547 1549 1550 1551 1552 1552 1552 1552 1553 1553 1554 1554 1554 1554 1555 1555 1555 1555 1555 1555 1556 1556
1505 1506 1506 1506 1507 1508 1508 1510 1511 1515 1518 1520 1522 1525 1528 1530 1532 1535 1536 1538 1540 1541 1543 1544 1545 1545 1546 1547 1548 1549 1550 1550 1552 1552 1552 1552 1553 1553 1553 1553 1553 1554 1554 1554 1554 1554 1554 1555 1555
1506 1504 1503 1505 1506 1506 1507 1508 1509 1514 1517 1520 1522 1525 1528 1530 1532 1534 1536 1537 1539 1540 1542 1543 1544 1545 1546 1547 1548 1549 1550 1550 1551 1551 1551 1551 1552 1551 1552 1552 1552 1552 1552 1552 1553 1553 1554 1554 1554
1502 1500 1502 1503 1504 1505 1506 1507 1508 1513 1516 1518 1521 1524 1527 1529 1532 1533 1535 1537 1538 1540 1541 1542 1544 1545 1545 1546 1547 1548 1549 1549 1550 1550 1550 1550 1550 1550 1550 1551 1552 1551 1552 1552 1552 1553 1553 1553 1553
1499 1501 1502 1502 1502 1502 1503 1503 1507 1511 1514 1516 1520 1522 1525 1528 1530 1532 1534 1535 1537 1538 1540 1541 1543 1544 1545 1546 1546 1547 1547 1548 1549 1549 1549 1549 1549 1549 1550 1550 1550 1550 1551 1551 1551 1552 1552 1552 1552
1504 1501 1502 1502 1499 1500 1501 1501 1504 1510 1512 1514 1518 1520 1523 1526 1528 1530 1532 1534 1535 1537 1538 1540 1541 1542 1543 1544 1545 1546 1546 1547 1547 1548 1548 1548 1548 1548 1549 1550 1549 1550 1550 1550 1550 1550 1550 1550 1550
1499 1500 1501 1499 1497 1499 1500 1501 1501 1507 1510 1512 1515 1518 1521 1523 1526 1528 1530 1532 1534 1535 1536 1538 1539 1540 1541 1543 1544 1545 1545 1546 1547 1547 1547 1547 1547 1548 1548 1549 1548 1548 1549 1549 1549 1549 1549 1550 1549
1499 1501 1500 1497 1497 1500 1499 1499 1498 1503 1506 1509 1512 1515 1518 1521 1524 1526 1528 1530 1531 1533 1534 1536 1537 1539 1540 1541 1542 1543 1544 1545 1545 1546 1546 1546 1546 1547 1548 1547 1548 1548 1547 1547 1547 1547 1548 1548 1548
1498 1498 1498 1499 1497 1497 1499 1500 1498 1500 1504 1508 1510 1513 1515 1518 1521 1523 1525 1527 1529 1530 1532 1533 1535 1536 1538 1539 1541 1542 1542 1543 1544 1544 1545 1545 1545 1546 1546 1546 1546 1546 1547 1547 1546 1546 1547 1547 1547
1498 1492 1495 1497 1499 1498 1498 1505 1497 1495 1499 1503 1506 1509 1512 1515 1518 1520 1522 1524 1526 1528 1529 1531 1532 1534 1535 1537 1539 1539 1540 1541 1542 1543 1543 1544 1544 1545 1545 1545 1545 1545 1546 1545 1545 1545 1545 1545 1546
1492 1492 1494 1495 1496 1498 1496 1500 1496 1492 1497 1498 1501 1505 1508 1511 1514 1517 1519 1521 1523 1525 1526 1528 1529 1531 1532 1534 1536 1537 1538 1539 1540 1541 1541 1542 1542 1543 1543 1543 1543 1543 1544 1543 1543 1543 1543 1543 1544
1492 1494 1494 1493 1493 1507 1498 1501 1500 1489 1493 1494 1497 1502 1505 1508 1511 1514 1517 1519 1520 1522 1523 1525 1526 1527 1529 1531 1533 1534 1535 1537 1538 1538 1539 1540 1540 1540 1541 1541 1541 1541 1542 1541 1541 1541 1541 1541 1541
1491 1496 1505 1508 1506 1504 1492 1498 1497 1488 1490 1493 1496 1499 1503 1506 1508 1511 1514 1516 1517 1519 1520 1522 1523 1524 1526 1527 1529 1531 1532 1533 1534 1536 1537 1537 1538 1538 1538 1539 1539 1539 1539 1539 1539 1538 1539 1539 1539
1488 1490 1505 1514 1509 1497 1495 1497 1490 1487 1490 1493 1496 1498 1501 1503 1505 1508 1511 1513 1514 1516 1518 1519 1521 1521 1522 1524 1526 1527 1529 1531 1532 1533 1534 1535 1535 1536 1536 1536 1536 1536 1536 1537 1537 1537 1537 1536 1536
1487 1486 1482 1491 1494 1499 1491 1488 1486 1486 1489 1492 1494 1497 1499 1502 1504 1506 1508 1510 1511 1513 1515 1517 1518 1519 1520 1521 1522 1524 1525 1527 1529 1529 1531 1532 1532 1532 1532 1533 1533 1533 1533 1534 1534 1534 1534 1534 1535
1482 1481 1485 1490 1507 1508 1496 1490 1486 1485 1487 1488 1492 1495 1498 1500 1502 1505 1506 1508 1509 1511 1513 1514 1516 1516 1517 1518 1519 1521 1522 1524 1525 1526 1527 1528 1529 1529 1529 1530 1530 1530 1530 1531 1531 1532 1532 1531 1532
1485 1485 1484 1484 1488 1501 1502 1491 1476 1480 1483 1486 1489 1493 1496 1499 1501 1503 1505 1507 1508 1510 1511 1512 1513 1514 1515 1516 1517 1518 1519 1521 1522 1523 1524 1525 1526 1526 1526 1527 1527 1527 1527 1528 1528 1529 1529 1529 1529
1478 1480 1482 1491 1493 1490 1492 1488 1474 1478 1481 1485 1489 1493 1496 1498 1500 1502 1504 1506 1507 1508 1509 1510 1512 1512 1513 1514 1514 1515 1516 1518 1519 1520 1521 1522 1522 1523 1524 1524 1524 1525 1525 1525 1525 1526 1526 1526 1526